Location: Kawakawa
(35.3830°S, 174.0670°E)
Time: 02:49:46
(UTC+12:00)

Cosmos 1869 - Pass Details

Date: 15 August 2020
Orbit: 516 x 566 km, 82.5° (Epoch: 19 September)

Event Time Altitude Azimuth Distance (km) Brightness Sun altitude
Rises 18:29:28 0° 342° (NNW) 2,664 7.2 -8.2°
Reaches altitude 10° 18:31:40 10° 336° (NNW) 1,775 6.4 -8.7°
Maximum altitude 18:35:26 48° 261° (W) 704 4.4 -9.4°
Drops below altitude 10° 18:39:14 10° 186° (S) 1,783 5.9 -10.2°
Sets 18:41:26 0° 179° (S) 2,677 6.7 -10.6°
